| time (UTC) | temp C | wind direction | speed KPH | gust KPH | rain 1hr cm | rain 24hr cm | rain mn cm | humidity % | barometer mb |
| 20260505014027 | 16 | 170 | 3.2 | 6.4 | 0.00 | 0.00 | 0.00 | 48 | 1010.0 |
| 20260505013019 | 16 | 117 | 1.6 | 6.4 | 0.00 | 0.00 | 0.00 | 47 | 1009.9 |
| 20260505012024 | 16 | 171 | 1.6 | 4.8 | 0.00 | 0.00 | 0.00 | 46 | 1009.8 |
| 20260505011020 | 16 | 200 | 4.8 | 8.0 | 0.00 | 0.00 | 0.00 | 45 | 1009.6 |
| 20260505010027 | 16 | 149 | 1.6 | 4.8 | 0.00 | 0.00 | 0.00 | 45 | 1009.4 |
| 20260505005036 | 16 | 129 | 1.6 | 4.8 | 0.00 | 0.00 | 0.00 | 45 | 1009.3 |
| 20260505004026 | 17 | 169 | 3.2 | 8.0 | 0.00 | 0.00 | 0.00 | 44 | 1009.1 |
| 20260505003024 | 17 | 126 | 3.2 | 6.4 | 0.00 | 0.00 | 0.00 | 43 | 1008.8 |
| 20260505002026 | 17 | 185 | 3.2 | 9.7 | 0.00 | 0.00 | 0.00 | 43 | 1008.6 |
| 20260505001025 | 17 | 177 | 1.6 | 8.0 | 0.00 | 0.00 | 0.00 | 42 | 1008.4 |
| 20260505000020 | 18 | 174 | 4.8 | 11.3 | 0.00 | 0.00 | 0.00 | 41 | 1008.1 |
| 20260504235025 | 18 | 73 | 1.6 | 4.8 | 0.00 | 0.00 | 0.00 | 40 | 1007.8 |
| 20260504234020 | 18 | 168 | 3.2 | 11.3 | 0.00 | 0.00 | 0.00 | 39 | 1007.7 |
| 20260504233024 | 19 | 171 | 4.8 | 8.0 | 0.00 | 0.00 | 0.00 | 38 | 1007.5 |
| 20260504232019 | 19 | 139 | 3.2 | 4.8 | 0.00 | 0.00 | 0.00 | 37 | 1007.3 |
| 20260504231024 | 20 | 118 | 4.8 | 17.7 | 0.00 | 0.00 | 0.00 | 35 | 1007.2 |
| 20260504230039 | 20 | 194 | 4.8 | 9.7 | 0.00 | 0.00 | 0.00 | 34 | 1007.0 |
| 20260504225027 | 21 | 155 | 4.8 | 11.3 | 0.00 | 0.00 | 0.00 | 32 | 1006.7 |
| 20260504224025 | 21 | 192 | 4.8 | 14.5 | 0.00 | 0.00 | 0.00 | 29 | 1006.6 |
| 20260504223020 | 21 | 10 | 3.2 | 6.4 | 0.00 | 0.00 | 0.00 | 29 | 1006.5 |
| 20260504222024 | 21 | 203 | 1.6 | 4.8 | 0.00 | 0.00 | 0.00 | 29 | 1006.5 |
| 20260504221021 | 21 | 15 | 3.2 | 8.0 | 0.00 | 0.00 | 0.00 | 29 | 1006.6 |
| 20260504220020 | 21 | 340 | 1.6 | 4.8 | 0.00 | 0.00 | 0.00 | 29 | 1006.6 |
| 20260504215020 | 21 | 342 | 3.2 | 8.0 | 0.00 | 0.00 | 0.00 | 29 | 1006.7 |
| 20260504214028 | 22 | 234 | 4.8 | 6.4 | 0.00 | 0.00 | 0.00 | 28 | 1006.6 |
| 20260504213040 | 22 | 269 | 4.8 | 11.3 | 0.00 | 0.00 | 0.00 | 27 | 1006.6 |
| 20260504212024 | 22 | 331 | 6.4 | 20.9 | 0.00 | 0.00 | 0.00 | 27 | 1006.6 |
| 20260504211020 | 22 | 309 | 3.2 | 14.5 | 0.00 | 0.00 | 0.00 | 28 | 1006.5 |
| 20260504210027 | 22 | 314 | 3.2 | 9.7 | 0.00 | 0.00 | 0.00 | 28 | 1006.6 |
| 20260504205019 | 21 | 66 | 3.2 | 6.4 | 0.00 | 0.00 | 0.00 | 28 | 1006.6 |
| 20260504204024 | 22 | 356 | 3.2 | 6.4 | 0.00 | 0.00 | 0.00 | 29 | 1006.6 |
| 20260504203025 | 22 | 8 | 3.2 | 11.3 | 0.00 | 0.00 | 0.00 | 28 | 1006.6 |
| 20260504202024 | 22 | 284 | 4.8 | 11.3 | 0.00 | 0.00 | 0.00 | 27 | 1006.6 |
| 20260504201024 | 22 | 334 | 6.4 | 17.7 | 0.00 | 0.00 | 0.00 | 27 | 1006.6 |
| 20260504200028 | 22 | 357 | 8.0 | 14.5 | 0.00 | 0.00 | 0.00 | 26 | 1006.7 |
| 20260504195024 | 22 | 346 | 8.0 | 16.1 | 0.00 | 0.00 | 0.00 | 25 | 1006.7 |
| 20260504194021 | 22 | 221 | 4.8 | 11.3 | 0.00 | 0.00 | 0.00 | 25 | 1006.7 |
| 20260504193025 | 22 | 208 | 4.8 | 9.7 | 0.00 | 0.00 | 0.00 | 25 | 1006.8 |
| 20260504192020 | 22 | 315 | 4.8 | 11.3 | 0.00 | 0.00 | 0.00 | 25 | 1006.8 |
| 20260504191044 | 22 | 249 | 6.4 | 14.5 | 0.00 | 0.00 | 0.00 | 25 | 1006.9 |
| 20260504190019 | 23 | 183 | 8.0 | 14.5 | 0.00 | 0.00 | 0.00 | 24 | 1007.0 |
| 20260504185024 | 22 | 326 | 9.7 | 22.5 | 0.00 | 0.00 | 0.00 | 25 | 1007.2 |
| 20260504184045 | 23 | 339 | 6.4 | 12.9 | 0.00 | 0.00 | 0.00 | 24 | 1007.2 |
| 20260504183028 | 23 | 162 | 4.8 | 11.3 | 0.00 | 0.00 | 0.00 | 23 | 1007.3 |
| 20260504182100 | 23 | 226 | 4.8 | 11.3 | 0.00 | 0.00 | 0.00 | 25 | 1007.3 |
| 20260504181021 | 22 | 314 | 6.4 | 22.5 | 0.00 | 0.00 | 0.00 | 25 | 1007.2 |
| 20260504180020 | 22 | 282 | 8.0 | 20.9 | 0.00 | 0.00 | 0.00 | 25 | 1007.5 |
| 20260504175020 | 22 | 311 | 8.0 | 14.5 | 0.00 | 0.00 | 0.00 | 25 | 1007.5 |
| 20260504174029 | 23 | 261 | 12.9 | 27.4 | 0.00 | 0.00 | 0.00 | 23 | 1007.6 |
| 20260504173021 | 23 | 355 | 4.8 | 14.5 | 0.00 | 0.00 | 0.00 | 25 | 1007.8 |
| 20260504172025 | 22 | 207 | 6.4 | 11.3 | 0.00 | 0.00 | 0.00 | 25 | 1007.8 |
| 20260504171021 | 21 | 321 | 11.3 | 20.9 | 0.00 | 0.00 | 0.00 | 26 | 1007.9 |
| 20260504151025 | 20 | 208 | 8.0 | 16.1 | 0.00 | 0.00 | 0.00 | 29 | 1009.0 |
| 20260504141022 | 18 | 30 | 3.2 | 6.4 | 0.00 | 0.00 | 0.00 | 33 | 1009.4 |
| 20260504100105 | 6 | 352 | 0.0 | 0.0 | 0.00 | 0.00 | 0.00 | 64 | 1010.7 |
| 20260504081020 | 6 | 0.0 | 0.0 | 0.00 | 0.00 | 0.00 | 74 | 1010.4 | |
| 20260504050019 | 2 | 0.0 | 0.0 | 0.00 | 0.00 | 0.00 | 78 | 1010.6 | |
| 20260504045020 | 2 | 0.0 | 0.0 | 0.00 | 0.00 | 0.00 | 79 | 1010.6 | |
| 20260504044024 | 2 | 0.0 | 0.0 | 0.00 | 0.00 | 0.00 | 78 | 1010.7 | |
| 20260504043021 | 2 | 0.0 | 0.0 | 0.00 | 0.00 | 0.00 | 78 | 1010.6 | |
| 20260504042025 | 2 | 0.0 | 0.0 | 0.00 | 0.00 | 0.00 | 78 | 1010.6 | |
| 20260504041021 | 2 | 336 | 0.0 | 0.0 | 0.00 | 0.00 | 0.00 | 78 | 1010.5 |
| 20260504040024 | 2 | 221 | 0.0 | 1.6 | 0.00 | 0.00 | 0.00 | 78 | 1010.4 |
| 20260504035019 | 2 | 0.0 | 0.0 | 0.00 | 0.00 | 0.00 | 77 | 1010.4 | |
| 20260504034040 | 2 | 0.0 | 0.0 | 0.00 | 0.00 | 0.00 | 74 | 1010.3 | |
| 20260504033020 | 2 | 0.0 | 0.0 | 0.00 | 0.00 | 0.00 | 72 | 1010.2 | |
| 20260504032028 | 3 | 0.0 | 0.0 | 0.00 | 0.00 | 0.00 | 72 | 1010.2 | |
| 20260504031020 | 3 | 0.0 | 0.0 | 0.00 | 0.00 | 0.00 | 72 | 1010.2 | |
| 20260504030025 | 3 | 0.0 | 0.0 | 0.00 | 0.00 | 0.00 | 71 | 1010.2 | |
| 20260504025021 | 3 | 0.0 | 0.0 | 0.00 | 0.00 | 0.00 | 70 | 1010.0 | |
| 20260504024024 | 3 | 0.0 | 0.0 | 0.00 | 0.00 | 0.00 | 70 | 1010.0 | |
| 20260504023031 | 3 | 0.0 | 0.0 | 0.00 | 0.00 | 0.00 | 69 | 1010.0 | |
| 20260504022026 | 4 | 0.0 | 0.0 | 0.00 | 0.00 | 0.00 | 68 | 1010.0 | |
| 20260504021020 | 4 | 0.0 | 0.0 | 0.00 | 0.00 | 0.00 | 66 | 1009.9 | |
| 20260504020026 | 5 | 0.0 | 0.0 | 0.00 | 0.00 | 0.00 | 64 | 1009.9 | |
| 20260504015024 | 5 | 0.0 | 0.0 | 0.00 | 0.00 | 0.00 | 63 | 1009.8 |